Location: *
(38.3914°N, 75.0697°W)
Time: 03:54:30
(UTC+00:00)

STARLINK-64 - Pass Details

Date: 17 February 2020
Orbit: 450 x 460 km, 53.0° (Epoch: 29 March)

Event Time Altitude Azimuth Distance (km) Brightness Sun altitude
Rises 23:59:26 0° 226° (SW) 2,455 7.7 -16.3°
Reaches altitude 10° 00:01:33 10° 226° (SW) 1,588 6.7 -16.8°
Maximum altitude 00:05:08 85° 140° (SE) 463 3.1 -17.5°
Enters shadow 00:06:14 42° 53° (NE) 662 3.6 -17.7°
